Williams, AZ

5:25 AM MST on December 17, 2017 (GMT -0700)
Williams

Weather History for KCMR - June, 2013

Change the Weather History Date:

Sunday, June 9, 2013

  Actual Average (K40G) Record (K40G)
Temperature  
Mean Temperature 70 °F -  
Max Temperature 89 °F 71 °F 77 °F (1997)
Min Temperature 50 °F 64 °F 71 °F (1997)
Cooling Degree Days 4    
Growing Degree Days 20 (Base 50)    
Moisture  
Dew Point 23 °F    
Average Humidity 17    
Maximum Humidity 38    
Minimum Humidity 8    
Precipitation  
Precipitation 0.00 in - - ()
Sea Level Pressure  
Sea Level Pressure 30.27 in    
Wind  
Wind Speed 6 mph (SW)    
Max Wind Speed 16 mph    
Max Gust Speed 32 mph    
Visibility 10 miles    
Events      
Averages and records for this station are not official NWS values.
T = Trace of Precipitation, MM = Missing Value Source: NWS Daily Summary

Daily Weather History Graph

Daily Weather History Graph

Search for Another Location

Airport or City:

Trip Planner

Search our weather history database for the weather conditions in past years. The results will help you decide how hot, cold, wet, or windy it might be!

Date:

Astronomy

Jun. 09, 2013 Rise Set
Actual Time 5:13 AM MST 7:42 PM MST
Civil Twilight 4:43 AM MST 8:12 PM MST
Nautical Twilight 4:07 AM MST 8:49 PM MST
Astronomical Twilight 3:26 AM MST 9:29 PM MST
Moon 6:11 AM MST (6/9) 8:34 PM MST (6/9)
Length of Visible Light 15h 28m
Length of Day
14h 29m
New Moon, 1% of the Moon is Illuminated
Jun 9
New Moon
Jun 16
First Quarter
Jun 23
Full
Jun 29
Last Quarter
Jul 8
New

Hourly Weather History & Observations

Time (MST) Temp. Dew Point Humidity Pressure Visibility Wind Dir Wind Speed Gust Speed Precip Events Conditions
12:15 AM 66.2 °F 23.0 °F 19% 30.26 in 10.0 mi South 3.5 mph - N/A   Clear
12:35 AM 66.2 °F 23.0 °F 19% 30.26 in 10.0 mi Calm Calm - N/A   Clear
12:55 AM 64.4 °F 23.0 °F 21% 30.26 in 10.0 mi Calm Calm - N/A   Clear
1:15 AM 62.6 °F 24.8 °F 24% 30.26 in 10.0 mi ESE 3.5 mph - N/A   Clear
1:35 AM 59.0 °F 24.8 °F 27% 30.26 in 10.0 mi South 5.8 mph - N/A   Clear
1:55 AM 57.2 °F 24.8 °F 29% 30.27 in 10.0 mi SSE 8.1 mph - N/A   Clear
2:15 AM 57.2 °F 23.0 °F 27% 30.26 in 10.0 mi SSE 5.8 mph - N/A   Clear
2:35 AM 57.2 °F 23.0 °F 27% 30.26 in 10.0 mi SSE 8.1 mph - N/A   Clear
2:55 AM 57.2 °F 23.0 °F 27% 30.27 in 10.0 mi SSE 6.9 mph - N/A   Clear
3:15 AM 53.6 °F 24.8 °F 33% 30.27 in 10.0 mi SSE 6.9 mph - N/A   Clear
3:35 AM 55.4 °F 24.8 °F 31% 30.26 in 10.0 mi SSE 6.9 mph - N/A   Clear
3:55 AM 53.6 °F 24.8 °F 33% 30.27 in 10.0 mi SSE 8.1 mph - N/A   Clear
4:15 AM 53.6 °F 24.8 °F 33% 30.27 in 10.0 mi SSE 8.1 mph - N/A   Clear
4:35 AM 51.8 °F 24.8 °F 35% 30.27 in 10.0 mi SSE 8.1 mph - N/A   Clear
4:55 AM 50.0 °F 24.8 °F 37% 30.27 in 10.0 mi SE 8.1 mph - N/A   Clear
5:15 AM 51.8 °F 24.8 °F 35% 30.27 in 10.0 mi SSE 6.9 mph - N/A   Clear
5:35 AM 51.8 °F 26.6 °F 38% 30.28 in 10.0 mi SSE 6.9 mph - N/A   Clear
5:55 AM 53.6 °F 26.6 °F 35% 30.28 in 10.0 mi SE 5.8 mph - N/A   Clear
6:15 AM 55.4 °F 26.6 °F 33% 30.28 in 10.0 mi SE 6.9 mph - N/A   Clear
6:35 AM 59.0 °F 30.2 °F 34% 30.28 in 10.0 mi SSE 4.6 mph - N/A   Clear
6:55 AM 62.6 °F 32.0 °F 32% 30.28 in 10.0 mi Calm Calm - N/A   Clear
7:15 AM 68.0 °F 32.0 °F 26% 30.29 in 10.0 mi Calm Calm - N/A   Clear
7:35 AM 75.2 °F 28.4 °F 18% 30.29 in 10.0 mi WNW 5.8 mph - N/A   Clear
7:55 AM 75.2 °F 24.8 °F 15% 30.30 in 10.0 mi West 8.1 mph - N/A   Clear
8:15 AM 77.0 °F 24.8 °F 14% 30.30 in 10.0 mi WNW 9.2 mph - N/A   Clear
8:35 AM 77.0 °F 24.8 °F 14% 30.30 in 10.0 mi West 6.9 mph - N/A   Clear
8:55 AM 78.8 °F 23.0 °F 13% 30.30 in 10.0 mi West 9.2 mph - N/A   Clear
9:15 AM 80.6 °F 23.0 °F 12% 30.30 in 10.0 mi WSW 10.4 mph - N/A   Clear
9:35 AM 80.6 °F 24.8 °F 13% 30.30 in 10.0 mi West 8.1 mph - N/A   Clear
9:55 AM 82.4 °F 24.8 °F 12% 30.30 in 10.0 mi NNW 8.1 mph - N/A   Clear
10:15 AM 82.4 °F 23.0 °F 11% 30.30 in 10.0 mi West 8.1 mph - N/A   Clear
10:35 AM 82.4 °F 24.8 °F 12% 30.30 in 10.0 mi WNW 6.9 mph - N/A   Clear
10:55 AM 84.2 °F 24.8 °F 11% 30.30 in 10.0 mi WNW 9.2 mph - N/A   Clear
11:15 AM 84.2 °F 24.8 °F 11% 30.29 in 10.0 mi West 9.2 mph 16.1 mph N/A   Clear
11:35 AM 84.2 °F 23.0 °F 11% 30.29 in 10.0 mi WNW 9.2 mph - N/A   Clear
11:55 AM 86.0 °F 24.8 °F 11% 30.29 in 10.0 mi North 3.5 mph - N/A   Clear
12:15 PM 86.0 °F 24.8 °F 11% 30.29 in 10.0 mi WNW 3.5 mph 16.1 mph N/A   Clear
12:35 PM 86.0 °F 24.8 °F 11% 30.28 in 10.0 mi West 4.6 mph - N/A   Clear
12:55 PM 86.0 °F 23.0 °F 10% 30.28 in 10.0 mi NE 5.8 mph - N/A   Clear
1:15 PM 87.8 °F 23.0 °F 9% 30.27 in 10.0 mi NNE 5.8 mph - N/A   Clear
1:35 PM 89.6 °F 24.8 °F 10% 30.26 in 10.0 mi West 11.5 mph 17.3 mph N/A   Clear
1:55 PM 87.8 °F 23.0 °F 9% 30.26 in 10.0 mi West 10.4 mph - N/A   Clear
2:15 PM 89.6 °F 23.0 °F 9% 30.25 in 10.0 mi WSW 15.0 mph 20.7 mph N/A   Clear
2:35 PM 89.6 °F 23.0 °F 9% 30.25 in 10.0 mi WSW 12.7 mph 20.7 mph N/A   Clear
2:55 PM 89.6 °F 23.0 °F 9% 30.25 in 10.0 mi WSW 11.5 mph 21.9 mph N/A   Clear
3:15 PM 89.6 °F 23.0 °F 9% 30.24 in 10.0 mi South 9.2 mph 20.7 mph N/A   Clear
3:35 PM 89.6 °F 23.0 °F 9% 30.24 in 10.0 mi South 15.0 mph 32.2 mph N/A   Clear
3:55 PM 87.8 °F 23.0 °F 9% 30.23 in 10.0 mi SW 11.5 mph 23.0 mph N/A   Clear
4:15 PM 87.8 °F 23.0 °F 9% 30.23 in 10.0 mi WSW 12.7 mph 17.3 mph N/A   Clear
4:35 PM 89.6 °F 21.2 °F 8% 30.23 in 10.0 mi West 10.4 mph 20.7 mph N/A   Clear
4:55 PM 87.8 °F 21.2 °F 9% 30.22 in 10.0 mi WSW 13.8 mph 18.4 mph N/A   Clear
5:15 PM 86.0 °F 19.4 °F 9% 30.22 in 10.0 mi WSW 11.5 mph 20.7 mph N/A   Clear
5:35 PM 86.0 °F 19.4 °F 9% 30.22 in 10.0 mi SSW 13.8 mph 21.9 mph N/A   Clear
5:55 PM 86.0 °F 19.4 °F 9% 30.22 in 10.0 mi WSW 10.4 mph 18.4 mph N/A   Clear
6:15 PM 86.0 °F 19.4 °F 9% 30.22 in 10.0 mi SSW 10.4 mph - N/A   Clear
6:35 PM 84.2 °F 17.6 °F 8% 30.23 in 10.0 mi SSW 12.7 mph 21.9 mph N/A   Clear
6:55 PM 82.4 °F 17.6 °F 9% 30.23 in 10.0 mi SW 16.1 mph 19.6 mph N/A   Clear
7:15 PM 80.6 °F 17.6 °F 10% 30.24 in 10.0 mi SW 11.5 mph 17.3 mph N/A   Clear
7:35 PM 78.8 °F 17.6 °F 10% 30.24 in 10.0 mi SW 8.1 mph - N/A   Clear
7:55 PM 77.0 °F 17.6 °F 11% 30.25 in 10.0 mi SW 10.4 mph 17.3 mph N/A   Clear
8:15 PM 75.2 °F 19.4 °F 12% 30.25 in 10.0 mi SW 9.2 mph - N/A   Clear
8:35 PM 73.4 °F 19.4 °F 13% 30.26 in 10.0 mi SW 6.9 mph - N/A   Clear
8:55 PM 73.4 °F 19.4 °F 13% 30.27 in 10.0 mi Calm Calm - N/A   Clear
9:15 PM 71.6 °F 19.4 °F 14% 30.27 in 10.0 mi Calm Calm - N/A   Clear
9:35 PM 73.4 °F 17.6 °F 12% 30.28 in 10.0 mi Calm Calm - N/A   Clear
9:55 PM 73.4 °F 17.6 °F 12% 30.28 in 10.0 mi SSW 5.8 mph - N/A   Clear
10:15 PM 71.6 °F 17.6 °F 13% 30.28 in 10.0 mi SSW 4.6 mph - N/A   Clear
10:35 PM 69.8 °F 17.6 °F 14% 30.28 in 10.0 mi SSW 3.5 mph - N/A   Clear
10:55 PM 66.2 °F 19.4 °F 17% 30.28 in 10.0 mi SSE 5.8 mph - N/A   Clear
11:15 PM 66.2 °F 19.4 °F 17% 30.27 in 10.0 mi SSE 4.6 mph - N/A   Clear
11:35 PM 64.4 °F 19.4 °F 18% 30.27 in 10.0 mi Calm Calm - N/A   Clear
11:55 PM 64.4 °F 17.6 °F 16% 30.27 in 10.0 mi Calm Calm - N/A   Clear